Regional Weather Roundup
Issued by NWS

Home | Current Version | Previous Version | Text Only | Print | Product List | Glossary On
Versions: 1 2 3 4 5 6 7 8 9 10 11 12 13 14 15 16 17 18 19 20 21 22 23 24 25 26 27 28 29 30 31 32 33 34 35 36 37 38 39 40 41 42 43 44 45 46 47 48 49 50
000
ASUS46 KSTO 301309
RWRCA

NORTHERN AND CENTRAL CA REGIONAL WEATHER ROUNDUP
NATIONAL WEATHER SERVICE SACRAMENTO CA
600 AM PDT THU JUL 30 2015

NOTE: FAIR INDICATES FEW OR NO CLOUDS BELOW 12,000 FEET WITH NO
SIGNIFICANT WEATHER AND/OR OBSTRUCTIONS TO VISIBILITY.

CAZ001-003-301400-
NORTHWEST AREA

CITY           SKY/WX    TMP DP  RH WIND       PRES   REMARKS
CRESCENT CITY  CLEAR     54  51  90 NW3       29.97R FOG
ARCATA         NOT AVBL
SHELTER COVE   NOT AVBL
UKIAH          CLEAR     60  50  69 CALM      29.99R
$$

CAZ006-505>513-301400-
BAY AREA

CITY           SKY/WX    TMP DP  RH WIND       PRES   REMARKS
SANTA ROSA     LGT RAIN  61  57  87 CALM      29.99R
SAN RAFAEL     N/A       59  MM  MM MISG
NAPA           PTCLDY    59  57  93 W8        29.98R
CONCORD        CLEAR     63  56  78 W12       29.97R
OAKLAND CITY   N/A       61  MM  MM MISG
OAKLAND        CLOUDY    62  58  86 NW8       30.00R
SAN FRAN CITY  N/A       60  MM  96 MISG
SAN FRAN ARPT  MOCLDY    60  57  89 W6        30.00R
LIVERMORE      CLEAR     64  57  78 NW8       29.97R
HAYWARD        CLOUDY    61  58  90 N7        29.99R
REDWOOD CITY   N/A       MM  MM  MM MISG
MOFFETT ARPT   CLOUDY    64  60  87 NE5       30.01R
SAN JOSE ARPT  CLOUDY    63  59  87 W3        30.00R
$$
CAZ034-037-514>518-301400-
CENTRAL COAST

CITY           SKY/WX    TMP DP  RH WIND       PRES   REMARKS
WATSONVILLE    CLOUDY    60  58  92 W3        30.01R FOG
SALINAS        CLOUDY    60  57  89 W3        30.01R
MONTEREY       CLOUDY    61  57  87 NE3       30.02R
PT PIEDRAS BLS NOT AVBL
SAN LUIS OBISP CLOUDY    61  59  93 NW5       30.00R
SANTA MARIA    CLOUDY    62  59  90 W5        30.01R
$$
CAZ015-016-301400-
NORTHERN SACRAMENTO VALLEY

CITY           SKY/WX    TMP DP  RH WIND       PRES   REMARKS
REDDING        CLEAR     71  45  39 CALM      29.93R
RED BLUFF      CLEAR     72  38  29 NW7       29.93R
OROVILLE       CLEAR     72  53  51 CALM      29.93R
$$
CAZ016>018-301400-
SOUTHERN SACRAMENTO VALLEY

CITY           SKY/WX    TMP DP  RH WIND       PRES   REMARKS
AUBURN         CLEAR     79  37  22 E8        29.98R
LINCOLN        FAIR      68  52  56 S6        29.90R
MARYSVILLE     CLEAR     66  54  65 CALM      29.91R
SAC INTL ARPT  PTCLDY    65  56  72 SE8       29.90R
MATHER AIRPORT PTCLDY    64  55  72 SE6       29.92R
DOWNTOWN SAC   N/A       68  MM  MM MISG
SAC EXEC ARPT  CLEAR     66  55  67 S5        29.91R
VACAVILLE      CLEAR     68  54  60 SW7       29.91R
TRAVIS AFB     PTCLDY    62  57  83 SW22      29.89R
$$
CAZ019>021-301400-
SAN JOAQUIN VALLEY

CITY           SKY/WX    TMP DP  RH WIND       PRES   REMARKS
STOCKTON       CLEAR     64  55  72 N5        29.92R
MODESTO        CLEAR     72  50  45 VRB6      29.90R
MERCED         CLEAR     70  52  52 NW5       29.90R
LEMOORE        CLEAR     71  44  37 W5        29.93R
FRESNO         PTCLDY    75  55  49 NW6       29.92R
HANFORD        CLEAR     69  58  67 SW3       29.92R
PORTERVILLE    CLEAR     73  45  35 SE5       29.95R
BAKERSFIELD    CLEAR     82  30  15 NE5       29.93R
$$
CAZ011-012-071-301400-
NORTHERN MOUNTAINS

CITY           SKY/WX    TMP DP  RH WIND       PRES   REMARKS
YREKA          CLEAR     56  34  43 CALM      30.13R
MOUNT SHASTA   CLEAR     52  39  61 CALM      30.17R
ALTURAS        CLEAR     45  32  60 CALM      30.25R
$$
CAZ011-012-071-301400-
SIERRA NEVADA MTNS

CITY           SKY/WX    TMP DP  RH WIND       PRES   REMARKS
BLUE CANYON    CLEAR     75  27  17 NE6       30.28R
TRUCKEE        CLEAR     45  37  76 CALM      30.37S
TAHOE VLY ARPT CLEAR     47  36  65 S5        30.37R
MAMMOTH LAKES  FAIR      48  28  46 N3        30.43R
$$



USA.gov is the U.S. government's official web portal to all federal, state and local government web resources and services.